Weather in Baygildino

Russia / Chuvash Republic     55°31′49″N   47°20′30″E
temp.,
°C
wind,
m/s
gust,
m/s
humid.,
%
clouds,
%
prec.,
mm/h
press.,
hPa
HPBL,
m
15 april, thu
thu1500:00+10sse36870 0.0 102292
03:00+9sse33860 0.0 102123
06:00+10sse348742 0.0 102064
09:00+14s356626 0.0 1020264
12:00+19s23394 0.0 10191780
15:00+20s023395 0.0 10182178
18:00+16ene22513 0.0 101821
21:00+13ne22611 0.0 101916
16 april, fri
fri1600:00+10nne5109212 0.0 1020196
03:00+8ne6992100 0.0 1022369
06:00+8ene6987100 0.0 1023509
09:00+9ene698399 0.0 1024587
12:00+11ene677184 0.0 1024843
15:00+13ene676477 0.0 10241066
18:00+11ene696664 0.0 1025714
21:00+7ene512696 0.0 1026306
17 april, sat
sat1700:00+5ne511745 0.0 1026258
03:00+3ne411755 0.0 1027246
06:00+3ene411715 0.0 1027285
09:00+8ene69545 0.0 1028582
12:00+11ene67415 0.0 10271019
15:00+12ene66325 0.0 10261220
18:00+10ene48461 0.0 1026219
21:00+6ene49610 0.0 1026150
18 april, sun
sun1800:00+4ene410710 0.0 1026177
03:00+3ene38750 0.0 1026129
06:00+3ne49750 0.0 1025212
09:00+9ene57550 0.0 1025796
12:00+11ene67423 0.0 10241379
15:00+12ene674144 0.0 10241709
18:00+9ene5957100 0.0 1024465
21:00+6ene71271100 0.0 1026661
19 april, mon
mon1900:00+4ene5116522 0.0 1028448
03:00+2ene61256100 0.0 1030421
06:00+1ene61259100 0.0 1030480
09:00+4e71054100 0.0 1031993
12:00+7e8938100 0.0 10311586
15:00+7e8934100 0.0 10301640
18:00+5e61042100 0.0 1030796
21:00+3ene6134899 0.0 1031448